Zurück zum Katalog

STARLINK-36255

AktivKommunikationVLEO
NORAD 67102·PAYLOAD·🇺🇸 United States

Gestartet Dec 15, 2025 von Cape Canaveral Space Force Station

Loading…

Nächste Überflüge (nächste 24 Stunden)

TLE

AktuellSource: CelesTrak SupGP

Epoche: Sep 15, 2026, 02:39 UTC

1 67102C 25299A   26258.11090278  .00657630  00000+0  19445-1 0  2582
2 67102  43.0012 179.0997 0001472 271.0513 225.2975 15.33768856    18

Verfolge STARLINK-36255 in Echtzeit mit AllMySat

Download on the App Store